Location: Drouwen
(52.9559°N, 6.7974°E)
Time: 21:36:53
(UTC+00:00)

Meteor 1-25 Rocket - Pass Details

Date: 15 May 2026
Orbit: 834 x 892 km, 81.2° (Epoch: 10 June)

Event Time Altitude Azimuth Distance (km) Brightness Sun altitude
Rises 20:21:50 0° 347° (NNW) 3,457 8.5 -7.4°
Reaches altitude 10° 20:24:19 10° 350° (N) 2,506 7.6 -7.7°
Maximum altitude 20:29:59 69° 74° (ENE) 908 4.3 -8.3°
Drops below altitude 10° 20:35:32 10° 158° (SSE) 2,455 6.0 -8.8°
Enters shadow 20:35:43 - 158° (SSE) 2,523 6.1 -8.8°
